| time (UTC) | temp C | wind direction | speed KPH | gust KPH | rain 1hr cm | rain 24hr cm | rain mn cm | humidity % | barometer mb |
| 20260510183057 | 16 | 199 | 6.4 | 12.9 | 0.00 | 0.00 | 0.00 | 68 | 1015.0 |
| 20260510182549 | 17 | 134 | 4.8 | 12.9 | 0.00 | 0.00 | 0.00 | 67 | 1014.9 |
| 20260510182048 | 17 | 163 | 3.2 | 11.3 | 0.00 | 0.00 | 0.00 | 68 | 1014.7 |
| 20260510181608 | 17 | 176 | 4.8 | 11.3 | 0.00 | 0.00 | 0.00 | 68 | 1014.6 |
| 20260510181049 | 17 | 182 | 6.4 | 14.5 | 0.00 | 0.00 | 0.00 | 68 | 1014.7 |
| 20260510180550 | 17 | 196 | 6.4 | 16.1 | 0.00 | 0.00 | 0.00 | 68 | 1014.6 |
| 20260510180103 | 17 | 194 | 8.0 | 17.7 | 0.00 | 0.00 | 0.00 | 68 | 1014.5 |
| 20260510175549 | 17 | 175 | 9.7 | 17.7 | 0.00 | 0.00 | 0.00 | 68 | 1014.5 |
| 20260510175050 | 17 | 203 | 11.3 | 20.9 | 0.00 | 0.00 | 0.00 | 67 | 1014.6 |
| 20260510174549 | 17 | 208 | 12.9 | 22.5 | 0.00 | 0.00 | 0.00 | 66 | 1014.3 |
| 20260510174049 | 17 | 184 | 12.9 | 27.4 | 0.00 | 0.00 | 0.00 | 66 | 1014.6 |
| 20260510173551 | 17 | 203 | 12.9 | 27.4 | 0.00 | 0.00 | 0.00 | 66 | 1014.3 |
| 20260510173056 | 17 | 216 | 12.9 | 27.4 | 0.00 | 0.00 | 0.00 | 65 | 1014.1 |
| 20260510172548 | 18 | 192 | 14.5 | 19.3 | 0.00 | 0.00 | 0.00 | 65 | 1014.2 |
| 20260510172050 | 18 | 199 | 12.9 | 17.7 | 0.00 | 0.00 | 0.00 | 62 | 1014.2 |
| 20260510171558 | 18 | 189 | 8.0 | 17.7 | 0.00 | 0.00 | 0.00 | 60 | 1014.3 |
| 20260510171052 | 19 | 171 | 6.4 | 17.7 | 0.00 | 0.00 | 0.00 | 58 | 1014.2 |
| 20260510170548 | 20 | 132 | 9.7 | 17.7 | 0.00 | 0.00 | 0.00 | 57 | 1014.0 |
| 20260510170054 | 20 | 112 | 8.0 | 20.9 | 0.00 | 0.00 | 0.00 | 57 | 1013.9 |
| 20260510165549 | 20 | 111 | 9.7 | 22.5 | 0.00 | 0.08 | 0.00 | 56 | 1013.7 |
| 20260510165048 | 20 | 120 | 9.7 | 22.5 | 0.00 | 0.08 | 0.00 | 57 | 1013.7 |
| 20260510164601 | 20 | 145 | 9.7 | 22.5 | 0.00 | 0.08 | 0.00 | 56 | 1013.7 |
| 20260510164049 | 20 | 128 | 9.7 | 16.1 | 0.00 | 0.08 | 0.00 | 57 | 1013.7 |
| 20260510163551 | 20 | 141 | 6.4 | 16.1 | 0.00 | 0.08 | 0.00 | 57 | 1013.8 |
| 20260510163050 | 20 | 138 | 3.2 | 12.9 | 0.00 | 0.08 | 0.00 | 58 | 1013.8 |
| 20260510162548 | 20 | 101 | 4.8 | 17.7 | 0.00 | 0.08 | 0.00 | 58 | 1013.8 |
| 20260510162049 | 20 | 119 | 6.4 | 20.9 | 0.00 | 0.08 | 0.00 | 58 | 1013.9 |
| 20260510161550 | 20 | 124 | 11.3 | 20.9 | 0.00 | 0.08 | 0.00 | 57 | 1013.9 |
| 20260510161050 | 20 | 90 | 8.0 | 16.1 | 0.00 | 0.08 | 0.00 | 59 | 1013.7 |
| 20260510160550 | 20 | 143 | 4.8 | 16.1 | 0.00 | 0.08 | 0.00 | 60 | 1013.7 |
| 20260510160056 | 20 | 159 | 6.4 | 16.1 | 0.00 | 0.08 | 0.00 | 59 | 1013.6 |
| 20260510155549 | 20 | 134 | 9.7 | 16.1 | 0.00 | 0.08 | 0.00 | 61 | 1013.8 |
| 20260510155050 | 20 | 160 | 4.8 | 9.7 | 0.00 | 0.08 | 0.00 | 61 | 1013.9 |
| 20260510154600 | 20 | 0 | 1.6 | 22.5 | 0.00 | 0.08 | 0.00 | 60 | 1013.8 |
| 20260510154049 | 20 | 52 | 3.2 | 22.5 | 0.00 | 0.08 | 0.00 | 60 | 1013.8 |
| 20260510153552 | 20 | 34 | 6.4 | 16.1 | 0.00 | 0.08 | 0.00 | 59 | 1014.0 |
| 20260510153055 | 20 | 71 | 8.0 | 17.7 | 0.00 | 0.08 | 0.00 | 59 | 1013.8 |
| 20260510153040 | 20 | 76 | 6.4 | 20.9 | 0.00 | 0.08 | 0.00 | 59 | 1013.9 |
| 20260510151050 | 20 | 137 | 11.3 | 25.7 | 0.00 | 0.08 | 0.00 | 60 | 1014.0 |
| 20260510150553 | 20 | 90 | 8.0 | 19.3 | 0.00 | 0.08 | 0.00 | 58 | 1014.1 |
| 20260510150123 | 20 | 114 | 8.0 | 17.7 | 0.00 | 0.08 | 0.00 | 59 | 1014.0 |
| 20260510145550 | 20 | 124 | 9.7 | 17.7 | 0.00 | 0.08 | 0.00 | 58 | 1014.0 |
| 20260510145050 | 20 | 129 | 11.3 | 20.9 | 0.00 | 0.08 | 0.00 | 58 | 1014.1 |
| 20260510144557 | 20 | 98 | 6.4 | 20.9 | 0.00 | 0.08 | 0.00 | 58 | 1014.2 |
| 20260510144050 | 20 | 60 | 12.9 | 20.9 | 0.00 | 0.08 | 0.00 | 58 | 1014.2 |
| 20260510143553 | 20 | 76 | 9.7 | 19.3 | 0.00 | 0.08 | 0.00 | 57 | 1014.2 |
| 20260510143101 | 20 | 76 | 8.0 | 17.7 | 0.00 | 0.08 | 0.00 | 57 | 1014.2 |
| 20260510142550 | 20 | 53 | 8.0 | 22.5 | 0.00 | 0.08 | 0.00 | 57 | 1014.2 |
| 20260510142050 | 20 | 135 | 8.0 | 25.7 | 0.00 | 0.08 | 0.00 | 56 | 1014.0 |
| 20260510141600 | 20 | 32 | 11.3 | 25.7 | 0.00 | 0.08 | 0.00 | 57 | 1014.2 |
| 20260510141051 | 20 | 44 | 12.9 | 20.9 | 0.00 | 0.08 | 0.00 | 56 | 1014.6 |
| 20260510140549 | 20 | 119 | 8.0 | 20.9 | 0.00 | 0.08 | 0.00 | 49 | 1014.3 |
| 20260510140050 | 20 | 118 | 9.7 | 20.9 | 0.00 | 0.08 | 0.00 | 50 | 1014.5 |
| 20260510135549 | 20 | 98 | 9.7 | 20.9 | 0.00 | 0.08 | 0.00 | 51 | 1014.5 |
| 20260510135050 | 20 | 96 | 9.7 | 20.9 | 0.00 | 0.08 | 0.00 | 50 | 1014.5 |
| 20260510134557 | 20 | 189 | 8.0 | 20.9 | 0.00 | 0.08 | 0.00 | 50 | 1014.6 |
| 20260510134051 | 20 | 108 | 11.3 | 27.4 | 0.00 | 0.08 | 0.00 | 48 | 1014.6 |
| 20260510133552 | 20 | 153 | 12.9 | 27.4 | 0.00 | 0.08 | 0.00 | 49 | 1014.6 |
| 20260510133058 | 20 | 116 | 9.7 | 27.4 | 0.00 | 0.08 | 0.00 | 50 | 1014.8 |
| 20260510132550 | 20 | 108 | 9.7 | 22.5 | 0.00 | 0.08 | 0.00 | 50 | 1014.6 |
| 20260510132051 | 21 | 98 | 9.7 | 17.7 | 0.00 | 0.08 | 0.00 | 48 | 1014.6 |
| 20260510131559 | 21 | 57 | 4.8 | 17.7 | 0.00 | 0.08 | 0.00 | 50 | 1015.0 |
| 20260510131050 | 21 | 116 | 6.4 | 22.5 | 0.00 | 0.08 | 0.00 | 50 | 1014.9 |
| 20260510130550 | 20 | 128 | 8.0 | 22.5 | 0.00 | 0.08 | 0.00 | 49 | 1015.1 |
| 20260510130056 | 20 | 63 | 12.9 | 22.5 | 0.00 | 0.08 | 0.00 | 47 | 1015.1 |
| 20260510125549 | 20 | 121 | 9.7 | 22.5 | 0.00 | 0.08 | 0.00 | 50 | 1015.3 |
| 20260510125049 | 20 | 72 | 11.3 | 20.9 | 0.00 | 0.08 | 0.00 | 49 | 1015.3 |
| 20260510124602 | 20 | 137 | 12.9 | 20.9 | 0.00 | 0.08 | 0.00 | 46 | 1015.4 |
| 20260510124050 | 21 | 121 | 8.0 | 19.3 | 0.00 | 0.08 | 0.00 | 49 | 1015.4 |
| 20260510123550 | 21 | 140 | 11.3 | 20.9 | 0.00 | 0.08 | 0.00 | 50 | 1015.7 |
| 20260510123051 | 21 | 111 | 11.3 | 20.9 | 0.00 | 0.08 | 0.00 | 49 | 1015.5 |
| 20260510122554 | 20 | 130 | 8.0 | 25.7 | 0.00 | 0.08 | 0.00 | 51 | 1015.7 |
| 20260510122050 | 20 | 133 | 11.3 | 25.7 | 0.00 | 0.08 | 0.00 | 50 | 1015.9 |
| 20260510121558 | 20 | 140 | 8.0 | 16.1 | 0.00 | 0.08 | 0.00 | 52 | 1015.8 |
| 20260510121050 | 20 | 145 | 8.0 | 16.1 | 0.00 | 0.08 | 0.00 | 49 | 1015.9 |
| 20260510120553 | 20 | 133 | 6.4 | 19.3 | 0.00 | 0.08 | 0.00 | 51 | 1016.0 |
| 20260510120058 | 19 | 135 | 6.4 | 19.3 | 0.00 | 0.08 | 0.00 | 50 | 1015.9 |
| 20260510115621 | 20 | 104 | 8.0 | 22.5 | 0.00 | 0.13 | 0.00 | 49 | 1016.1 |
| 20260510114555 | 20 | 82 | 8.0 | 19.3 | 0.00 | 0.13 | 0.00 | 48 | 1016.2 |
| 20260510114049 | 20 | 65 | 8.0 | 19.3 | 0.00 | 0.13 | 0.00 | 47 | 1016.1 |
| 20260510113549 | 20 | 76 | 11.3 | 22.5 | 0.00 | 0.13 | 0.00 | 49 | 1016.2 |
| 20260510113054 | 20 | 111 | 8.0 | 22.5 | 0.00 | 0.13 | 0.00 | 50 | 1016.3 |
| 20260510112552 | 20 | 70 | 9.7 | 20.9 | 0.00 | 0.13 | 0.00 | 48 | 1016.4 |
| 20260510112050 | 20 | 130 | 4.8 | 19.3 | 0.00 | 0.13 | 0.00 | 49 | 1016.4 |
| 20260510111603 | 20 | 80 | 9.7 | 19.3 | 0.00 | 0.13 | 0.00 | 48 | 1016.5 |
| 20260510111049 | 20 | 45 | 8.0 | 17.7 | 0.00 | 0.13 | 0.00 | 50 | 1016.5 |
| 20260510110549 | 20 | 37 | 6.4 | 17.7 | 0.00 | 0.13 | 0.00 | 52 | 1016.7 |
| 20260510110057 | 19 | 104 | 11.3 | 17.7 | 0.00 | 0.13 | 0.00 | 52 | 1016.7 |
| 20260510105551 | 19 | 146 | 6.4 | 16.1 | 0.00 | 0.41 | 0.00 | 52 | 1016.6 |
| 20260510105500 | 20 | 122 | 9.7 | 17.7 | 0.00 | 0.41 | 0.00 | 51 | 1016.8 |
| 20260510104553 | 19 | 161 | 9.7 | 17.7 | 0.00 | 0.41 | 0.00 | 55 | 1016.6 |
| 20260510104053 | 19 | 80 | 4.8 | 16.1 | 0.00 | 0.41 | 0.00 | 52 | 1016.8 |
| 20260510103550 | 19 | 121 | 6.4 | 16.1 | 0.00 | 0.41 | 0.00 | 53 | 1016.8 |
| 20260510103103 | 18 | 112 | 8.0 | 16.1 | 0.00 | 0.41 | 0.00 | 53 | 1016.9 |
| 20260510102550 | 18 | 145 | 6.4 | 16.1 | 0.00 | 0.41 | 0.00 | 53 | 1016.8 |
| 20260510102054 | 18 | 140 | 8.0 | 16.1 | 0.00 | 0.41 | 0.00 | 53 | 1016.8 |
| 20260510101559 | 18 | 149 | 6.4 | 17.7 | 0.00 | 0.41 | 0.00 | 54 | 1017.0 |
| 20260510101049 | 18 | 120 | 8.0 | 17.7 | 0.00 | 0.41 | 0.00 | 55 | 1017.0 |
| 20260510101001 | 18 | 133 | 8.0 | 17.7 | 0.00 | 0.41 | 0.00 | 52 | 1017.1 |
| 20260510094614 | 18 | 125 | 4.8 | 14.5 | 0.00 | 0.41 | 0.00 | 60 | 1017.1 |
| 20260510092548 | 17 | 131 | 3.2 | 11.3 | 0.00 | 0.41 | 0.00 | 63 | 1017.2 |
| 20260510092049 | 17 | 130 | 1.6 | 11.3 | 0.00 | 0.41 | 0.00 | 64 | 1017.2 |
| 20260510091550 | 17 | 125 | 3.2 | 16.1 | 0.00 | 0.41 | 0.00 | 63 | 1017.3 |
| 20260510091048 | 17 | 100 | 9.7 | 16.1 | 0.00 | 0.41 | 0.00 | 65 | 1017.3 |
| 20260510090548 | 17 | 50 | 4.8 | 12.9 | 0.00 | 0.41 | 0.00 | 65 | 1017.3 |
| 20260510090051 | 16 | 107 | 6.4 | 12.9 | 0.00 | 0.41 | 0.00 | 66 | 1017.4 |
| 20260510085551 | 16 | 125 | 6.4 | 12.9 | 0.00 | 0.41 | 0.00 | 65 | 1017.5 |
| 20260510085049 | 16 | 123 | 3.2 | 12.9 | 0.00 | 0.41 | 0.00 | 65 | 1017.3 |
| 20260510084549 | 16 | 93 | 4.8 | 12.9 | 0.00 | 0.41 | 0.00 | 65 | 1017.4 |
| 20260510084052 | 16 | 127 | 3.2 | 9.7 | 0.00 | 0.41 | 0.00 | 67 | 1017.3 |
| 20260510083549 | 16 | 64 | 4.8 | 9.7 | 0.00 | 0.41 | 0.00 | 68 | 1017.4 |
| 20260510083104 | 16 | 117 | 1.6 | 6.4 | 0.00 | 0.41 | 0.00 | 69 | 1017.5 |
| 20260510082549 | 16 | 88 | 1.6 | 9.7 | 0.00 | 0.41 | 0.00 | 71 | 1017.3 |
| 20260510082050 | 16 | 85 | 3.2 | 9.7 | 0.00 | 0.41 | 0.00 | 71 | 1017.4 |
| 20260510081555 | 16 | 71 | 1.6 | 9.7 | 0.00 | 0.41 | 0.00 | 73 | 1017.4 |
| 20260510081050 | 15 | 89 | 4.8 | 16.1 | 0.00 | 0.41 | 0.00 | 72 | 1017.6 |
| 20260510080552 | 15 | 92 | 6.4 | 16.1 | 0.00 | 0.41 | 0.00 | 71 | 1017.5 |
| 20260510080048 | 15 | 64 | 1.6 | 9.7 | 0.00 | 0.41 | 0.00 | 72 | 1017.6 |
| 20260510075550 | 15 | 107 | 4.8 | 9.7 | 0.00 | 0.43 | 0.00 | 72 | 1017.5 |
| 20260510075048 | 15 | 53 | 1.6 | 6.4 | 0.00 | 0.43 | 0.00 | 73 | 1017.5 |
| 20260510074602 | 15 | 87 | 0.0 | 1.6 | 0.00 | 0.43 | 0.00 | 72 | 1017.4 |
| 20260510074047 | 16 | 87 | 0.0 | 1.6 | 0.00 | 0.43 | 0.00 | 71 | 1017.5 |
| 20260510073707 | 15 | 0 | 0.0 | 1.6 | 0.00 | 0.43 | 0.00 | 75 | 1017.6 |
| 20260510072549 | 15 | 0 | 0.0 | 3.2 | 0.00 | 0.43 | 0.00 | 75 | 1017.6 |
| 20260510072051 | 15 | 0 | 0.0 | 3.2 | 0.00 | 0.43 | 0.00 | 77 | 1017.7 |
| 20260510071550 | 15 | 87 | 0.0 | 3.2 | 0.00 | 0.43 | 0.00 | 79 | 1017.6 |
| 20260510071048 | 14 | 0 | 0.0 | 0.0 | 0.00 | 0.43 | 0.00 | 83 | 1017.4 |
| 20260510070548 | 13 | 0 | 0.0 | 0.0 | 0.00 | 0.43 | 0.00 | 87 | 1017.3 |
| 20260510070053 | 13 | 0 | 0.0 | 1.6 | 0.00 | 0.43 | 0.00 | 90 | 1017.3 |
| 20260510065554 | 12 | 0 | 0.0 | 3.2 | 0.00 | 0.43 | 0.00 | 92 | 1017.4 |
| 20260510065059 | 12 | 0 | 0.0 | 6.4 | 0.00 | 0.43 | 0.00 | 94 | 1017.3 |
| 20260510065056 | 12 | 87 | 1.6 | 6.4 | 0.00 | 0.43 | 0.00 | 94 | 1017.2 |
| 20260510062551 | 10 | 130 | 1.6 | 1.6 | 0.00 | 0.43 | 0.00 | 96 | 1016.9 |
| 20260510062049 | 10 | 129 | 0.0 | 1.6 | 0.00 | 0.43 | 0.00 | 96 | 1017.1 |
| 20260510061555 | 10 | 0 | 0.0 | 1.6 | 0.00 | 0.43 | 0.00 | 96 | 1016.9 |
| 20260510061050 | 9 | 0 | 0.0 | 1.6 | 0.00 | 0.43 | 0.00 | 96 | 1017.1 |
| 20260510060553 | 9 | 128 | 0.0 | 1.6 | 0.00 | 0.43 | 0.00 | 96 | 1017.0 |
| 20260510060052 | 8 | 0 | 0.0 | 0.0 | 0.00 | 0.43 | 0.00 | 96 | 1016.9 |
| 20260510055550 | 8 | 0 | 0.0 | 0.0 | 0.00 | 0.43 | 0.00 | 96 | 1016.7 |
| 20260510055048 | 8 | 0 | 0.0 | 1.6 | 0.00 | 0.43 | 0.00 | 96 | 1016.7 |
| 20260510054551 | 8 | 0 | 0.0 | 1.6 | 0.00 | 0.43 | 0.00 | 96 | 1016.7 |
| 20260510054048 | 8 | 0 | 0.0 | 1.6 | 0.00 | 0.43 | 0.00 | 96 | 1016.8 |
| 20260510053548 | 8 | 0 | 0.0 | 1.6 | 0.00 | 0.43 | 0.00 | 96 | 1016.8 |
| 20260510053052 | 8 | 0 | 0.0 | 1.6 | 0.00 | 0.43 | 0.00 | 96 | 1016.8 |
| 20260510052552 | 8 | 0 | 0.0 | 1.6 | 0.00 | 0.43 | 0.00 | 96 | 1016.6 |
| 20260510052048 | 8 | 0 | 0.0 | 1.6 | 0.00 | 0.43 | 0.00 | 96 | 1016.7 |
| 20260510051602 | 8 | 127 | 0.0 | 1.6 | 0.00 | 0.43 | 0.00 | 96 | 1016.4 |
| 20260510051051 | 8 | 0 | 0.0 | 3.2 | 0.00 | 0.43 | 0.00 | 96 | 1016.6 |
| 20260510050547 | 8 | 133 | 1.6 | 3.2 | 0.00 | 0.43 | 0.00 | 96 | 1016.5 |
| 20260510050050 | 8 | 133 | 0.0 | 3.2 | 0.00 | 0.43 | 0.00 | 96 | 1016.4 |
| 20260510045550 | 8 | 130 | 1.6 | 4.8 | 0.00 | 0.43 | 0.00 | 96 | 1016.5 |
| 20260510045050 | 8 | 130 | 1.6 | 4.8 | 0.00 | 0.43 | 0.00 | 96 | 1016.5 |
| 20260510044601 | 8 | 129 | 3.2 | 4.8 | 0.00 | 0.43 | 0.00 | 96 | 1016.4 |
| 20260510044049 | 8 | 131 | 0.0 | 3.2 | 0.00 | 0.43 | 0.00 | 96 | 1016.4 |
| 20260510043549 | 8 | 131 | 0.0 | 1.6 | 0.00 | 0.43 | 0.00 | 96 | 1016.3 |
| 20260510043051 | 8 | 0 | 0.0 | 6.4 | 0.00 | 0.43 | 0.00 | 96 | 1016.2 |
| 20260510042553 | 8 | 131 | 1.6 | 6.4 | 0.00 | 0.43 | 0.00 | 96 | 1016.3 |
| 20260510042049 | 8 | 149 | 1.6 | 6.4 | 0.00 | 0.43 | 0.00 | 96 | 1016.3 |
| 20260510041551 | 7 | 132 | 1.6 | 8.0 | 0.00 | 0.43 | 0.00 | 96 | 1016.2 |
| 20260510041049 | 7 | 133 | 3.2 | 8.0 | 0.00 | 0.43 | 0.00 | 96 | 1016.2 |
| 20260510040552 | 7 | 131 | 1.6 | 3.2 | 0.00 | 0.43 | 0.00 | 95 | 1016.2 |
| 20260510040056 | 7 | 139 | 0.0 | 3.2 | 0.00 | 0.43 | 0.00 | 95 | 1016.1 |
| 20260510035552 | 7 | 139 | 0.0 | 3.2 | 0.00 | 0.43 | 0.00 | 95 | 1016.3 |
| 20260510035052 | 7 | 139 | 1.6 | 3.2 | 0.00 | 0.43 | 0.00 | 95 | 1016.3 |
| 20260510034553 | 7 | 152 | 0.0 | 3.2 | 0.00 | 0.43 | 0.00 | 95 | 1016.3 |
| 20260510034118 | 7 | 143 | 0.0 | 3.2 | 0.00 | 0.43 | 0.00 | 95 | 1016.3 |
| 20260510032549 | 7 | 147 | 0.0 | 1.6 | 0.00 | 0.43 | 0.00 | 95 | 1016.2 |
| 20260510032048 | 7 | 0 | 0.0 | 1.6 | 0.00 | 0.43 | 0.00 | 95 | 1016.3 |
| 20260510031554 | 7 | 0 | 0.0 | 3.2 | 0.00 | 0.43 | 0.00 | 95 | 1016.2 |
| 20260510031049 | 7 | 147 | 0.0 | 3.2 | 0.00 | 0.43 | 0.00 | 95 | 1016.3 |
| 20260510030548 | 8 | 147 | 0.0 | 3.2 | 0.00 | 0.43 | 0.00 | 95 | 1016.2 |
| 20260510025548 | 8 | 147 | 1.6 | 3.2 | 0.00 | 0.43 | 0.00 | 95 | 1016.2 |
| 20260510025049 | 8 | 147 | 1.6 | 3.2 | 0.00 | 0.43 | 0.00 | 95 | 1016.3 |
| 20260510024556 | 8 | 147 | 0.0 | 3.2 | 0.00 | 0.43 | 0.00 | 95 | 1016.4 |
| 20260510024048 | 8 | 147 | 1.6 | 3.2 | 0.00 | 0.43 | 0.00 | 95 | 1016.2 |
| 20260510023548 | 7 | 147 | 0.0 | 1.6 | 0.00 | 0.43 | 0.00 | 95 | 1016.2 |
| 20260510023053 | 7 | 147 | 1.6 | 3.2 | 0.00 | 0.43 | 0.00 | 95 | 1016.1 |
| 20260510022549 | 7 | 0 | 1.6 | 3.2 | 0.00 | 0.43 | 0.00 | 95 | 1016.1 |
| 20260510022050 | 7 | 147 | 1.6 | 3.2 | 0.00 | 0.43 | 0.00 | 95 | 1016.2 |
| 20260510021600 | 7 | 147 | 1.6 | 3.2 | 0.00 | 0.43 | 0.00 | 95 | 1016.3 |
| 20260510021051 | 7 | 216 | 1.6 | 3.2 | 0.00 | 0.43 | 0.00 | 94 | 1016.4 |
| 20260510020549 | 7 | 216 | 0.0 | 3.2 | 0.00 | 0.43 | 0.00 | 94 | 1016.3 |
| 20260510020053 | 7 | 0 | 0.0 | 0.0 | 0.00 | 0.43 | 0.00 | 95 | 1016.0 |
| 20260510015550 | 7 | 0 | 0.0 | 1.6 | 0.00 | 0.43 | 0.00 | 95 | 1016.3 |
| 20260510015050 | 7 | 0 | 0.0 | 1.6 | 0.00 | 0.43 | 0.00 | 94 | 1016.3 |
| 20260510014559 | 7 | 0 | 0.0 | 3.2 | 0.00 | 0.43 | 0.00 | 94 | 1016.3 |
| 20260510014109 | 7 | 0 | 0.0 | 3.2 | 0.00 | 0.43 | 0.00 | 94 | 1016.2 |
| 20260510012552 | 8 | 0 | 0.0 | 1.6 | 0.00 | 0.43 | 0.00 | 95 | 1016.4 |
| 20260510012052 | 8 | 216 | 0.0 | 1.6 | 0.00 | 0.43 | 0.00 | 94 | 1016.5 |
| 20260510011552 | 8 | 216 | 0.0 | 1.6 | 0.00 | 0.43 | 0.00 | 94 | 1016.5 |
| 20260510011047 | 8 | 216 | 0.0 | 0.0 | 0.00 | 0.41 | 0.00 | 94 | 1016.7 |
| 20260510010549 | 8 | 0 | 0.0 | 0.0 | 0.00 | 0.41 | 0.00 | 94 | 1016.5 |
| 20260510010055 | 8 | 0 | 0.0 | 1.6 | 0.00 | 0.41 | 0.00 | 94 | 1016.5 |
| 20260510005551 | 8 | 0 | 0.0 | 1.6 | 0.00 | 0.41 | 0.00 | 93 | 1016.6 |
| 20260510005049 | 8 | 216 | 0.0 | 1.6 | 0.00 | 0.41 | 0.00 | 93 | 1016.6 |
| 20260510004552 | 8 | 216 | 0.0 | 1.6 | 0.00 | 0.41 | 0.00 | 94 | 1016.7 |
| 20260510004048 | 8 | 216 | 0.0 | 1.6 | 0.00 | 0.41 | 0.00 | 94 | 1016.7 |
| 20260510003548 | 9 | 0 | 0.0 | 1.6 | 0.00 | 0.41 | 0.00 | 94 | 1016.7 |
| 20260510003051 | 9 | 216 | 0.0 | 0.0 | 0.00 | 0.41 | 0.00 | 93 | 1016.7 |
| 20260510002548 | 9 | 0 | 0.0 | 1.6 | 0.00 | 0.41 | 0.00 | 94 | 1016.9 |
| 20260510002048 | 9 | 0 | 0.0 | 1.6 | 0.00 | 0.41 | 0.00 | 93 | 1016.9 |
| 20260510001550 | 9 | 0 | 0.0 | 0.0 | 0.00 | 0.41 | 0.00 | 93 | 1017.0 |
| 20260510001049 | 10 | 0 | 0.0 | 1.6 | 0.00 | 0.41 | 0.00 | 93 | 1016.9 |
| 20260510000548 | 10 | 0 | 0.0 | 3.2 | 0.00 | 0.41 | 0.00 | 94 | 1017.1 |
| 20260510000053 | 10 | 216 | 1.6 | 3.2 | 0.00 | 0.41 | 0.00 | 94 | 1017.1 |
| 20260509235550 | 10 | 216 | 0.0 | 3.2 | 0.00 | 0.41 | 0.00 | 94 | 1017.2 |
| 20260509235048 | 10 | 319 | 0.0 | 1.6 | 0.00 | 0.41 | 0.00 | 94 | 1017.2 |
| 20260509234554 | 10 | 0 | 0.0 | 1.6 | 0.00 | 0.41 | 0.00 | 94 | 1017.2 |
| 20260509234049 | 10 | 0 | 0.0 | 0.0 | 0.00 | 0.41 | 0.00 | 93 | 1017.1 |
| 20260509233551 | 10 | 0 | 0.0 | 1.6 | 0.00 | 0.41 | 0.00 | 93 | 1017.3 |
| 20260509233051 | 10 | 0 | 0.0 | 1.6 | 0.00 | 0.41 | 0.00 | 93 | 1017.3 |
| 20260509232548 | 10 | 0 | 0.0 | 1.6 | 0.00 | 0.41 | 0.00 | 93 | 1017.2 |
| 20260509232048 | 10 | 0 | 0.0 | 0.0 | 0.00 | 0.41 | 0.00 | 93 | 1017.3 |
| 20260509231552 | 10 | 0 | 0.0 | 0.0 | 0.00 | 0.41 | 0.00 | 93 | 1017.3 |
| 20260509231048 | 11 | 0 | 0.0 | 0.0 | 0.00 | 0.41 | 0.00 | 93 | 1017.3 |
| 20260509230810 | 11 | 0 | 0.0 | 0.0 | 0.00 | 0.41 | 0.00 | 93 | 1017.1 |
| 20260509222553 | 11 | 0 | 0.0 | 1.6 | 0.00 | 0.41 | 0.00 | 93 | 1017.3 |
| 20260509222053 | 11 | 319 | 0.0 | 1.6 | 0.00 | 0.41 | 0.00 | 93 | 1017.2 |
| 20260509221557 | 11 | 319 | 0.0 | 1.6 | 0.00 | 0.41 | 0.00 | 93 | 1017.4 |
| 20260509221051 | 11 | 319 | 0.0 | 1.6 | 0.00 | 0.41 | 0.00 | 93 | 1017.4 |
| 20260509220554 | 11 | 319 | 0.0 | 1.6 | 0.00 | 0.41 | 0.00 | 92 | 1017.2 |
| 20260509220107 | 11 | 319 | 0.0 | 1.6 | 0.00 | 0.41 | 0.00 | 92 | 1017.3 |
| 20260509215553 | 11 | 319 | 0.0 | 1.6 | 0.00 | 0.41 | 0.41 | 92 | 1017.1 |
| 20260509215049 | 12 | 319 | 0.0 | 1.6 | 0.00 | 0.41 | 0.41 | 92 | 1017.2 |
| 20260509214603 | 12 | 0 | 0.0 | 3.2 | 0.00 | 0.41 | 0.41 | 92 | 1017.1 |
| 20260509214048 | 12 | 319 | 0.0 | 3.2 | 0.00 | 0.41 | 0.41 | 92 | 1017.0 |
| 20260509213553 | 12 | 319 | 1.6 | 3.2 | 0.00 | 0.41 | 0.41 | 92 | 1017.0 |
| 20260509213122 | 12 | 0 | 0.0 | 4.8 | 0.00 | 0.41 | 0.41 | 92 | 1017.0 |
| 20260509212549 | 12 | 0 | 1.6 | 6.4 | 0.00 | 0.41 | 0.41 | 92 | 1016.9 |
| 20260509212052 | 12 | 310 | 1.6 | 6.4 | 0.00 | 0.41 | 0.41 | 92 | 1017.1 |
| 20260509211554 | 12 | 313 | 1.6 | 6.4 | 0.00 | 0.41 | 0.41 | 92 | 1017.0 |
| 20260509211049 | 12 | 316 | 3.2 | 8.0 | 0.00 | 0.41 | 0.41 | 91 | 1017.0 |
| 20260509210549 | 12 | 315 | 1.6 | 8.0 | 0.00 | 0.41 | 0.41 | 91 | 1017.0 |
| 20260509210107 | 12 | 302 | 4.8 | 8.0 | 0.00 | 0.41 | 0.41 | 91 | 1017.0 |
| 20260509205549 | 12 | 303 | 3.2 | 9.7 | 0.00 | 0.41 | 0.41 | 91 | 1016.8 |
| 20260509205048 | 12 | 304 | 3.2 | 9.7 | 0.00 | 0.41 | 0.41 | 91 | 1016.9 |
| 20260509204611 | 12 | 315 | 3.2 | 8.0 | 0.00 | 0.41 | 0.41 | 91 | 1016.8 |
| 20260509204053 | 12 | 316 | 3.2 | 8.0 | 0.00 | 0.41 | 0.41 | 91 | 1016.8 |
| 20260509203553 | 12 | 294 | 4.8 | 9.7 | 0.00 | 0.41 | 0.41 | 91 | 1016.8 |
| 20260509203059 | 12 | 305 | 6.4 | 9.7 | 0.00 | 0.41 | 0.41 | 91 | 1016.6 |
| 20260509202549 | 12 | 310 | 4.8 | 11.3 | 0.00 | 0.41 | 0.41 | 91 | 1016.6 |
| 20260509202049 | 12 | 314 | 6.4 | 11.3 | 0.00 | 0.41 | 0.41 | 91 | 1016.5 |
| 20260509201552 | 12 | 289 | 6.4 | 9.7 | 0.00 | 0.41 | 0.41 | 90 | 1016.4 |
| 20260509201051 | 13 | 316 | 3.2 | 8.0 | 0.00 | 0.41 | 0.41 | 90 | 1016.3 |
| 20260509200552 | 13 | 0 | 0.0 | 3.2 | 0.00 | 0.41 | 0.41 | 90 | 1016.2 |
| 20260509200100 | 13 | 0 | 0.0 | 3.2 | 0.00 | 0.41 | 0.41 | 90 | 1016.5 |
| 20260509195551 | 13 | 0 | 0.0 | 4.8 | 0.00 | 0.41 | 0.41 | 90 | 1016.2 |
| 20260509195052 | 13 | 61 | 1.6 | 4.8 | 0.00 | 0.41 | 0.41 | 90 | 1016.2 |
| 20260509194600 | 13 | 60 | 1.6 | 4.8 | 0.00 | 0.41 | 0.41 | 89 | 1016.0 |
| 20260509194052 | 13 | 0 | 0.0 | 3.2 | 0.00 | 0.41 | 0.41 | 89 | 1016.0 |
| 20260509193549 | 13 | 61 | 0.0 | 3.2 | 0.00 | 0.41 | 0.41 | 89 | 1015.8 |
| 20260509193126 | 13 | 0 | 1.6 | 8.0 | 0.00 | 0.41 | 0.41 | 88 | 1015.6 |
| 20260509192550 | 13 | 60 | 1.6 | 8.0 | 0.00 | 0.41 | 0.41 | 88 | 1015.5 |
| 20260509192048 | 13 | 39 | 0.0 | 8.0 | 0.00 | 0.41 | 0.41 | 87 | 1015.4 |
| 20260509191551 | 13 | 79 | 3.2 | 11.3 | 0.00 | 0.41 | 0.41 | 86 | 1015.5 |
| 20260509191052 | 14 | 73 | 4.8 | 11.3 | 0.00 | 0.41 | 0.41 | 85 | 1015.2 |
| 20260509190550 | 14 | 54 | 6.4 | 9.7 | 0.00 | 0.41 | 0.41 | 84 | 1015.4 |
| 20260509190052 | 14 | 63 | 3.2 | 9.7 | 0.00 | 0.41 | 0.41 | 84 | 1015.2 |
| 20260509185548 | 14 | 78 | 4.8 | 12.9 | 0.00 | 0.41 | 0.41 | 84 | 1015.2 |
| 20260509185048 | 14 | 69 | 4.8 | 14.5 | 0.00 | 0.41 | 0.41 | 85 | 1015.1 |
| 20260509184555 | 14 | 127 | 6.4 | 14.5 | 0.00 | 0.41 | 0.41 | 85 | 1015.0 |